Home > Time Zones > World Clock > Weather > India > Thane > Past weeks

Flag for India Weather past 2 weeks in Thane, Maharashtra, India

91 °F


Feels Like: 93 °F
Forecast: 76 / 95 °F
Wind: 10 mph from Southwest

Location: Mumbai / Santacruz

Current Time: Nov 29, 2015 at 3:04:18 PM

Latest Report: Nov 29, 2015 at 2:30 PM

Visibility: 2 mi

Pressure: 29.86 "Hg

Humidity: 41%

Dew point: 64 °F

Location of ThaneLocation

Historic Weather in Thane — Graph


Thane temperature yesterday

Maximum temperature yesterday: 90 °F (at 12:00 PM)
Minimum temperature yesterday: 77 °F (at 4:00 AM)
Average temperature yesterday: 83 °F

Past Weeks' High & Low Weather Summary

High99 °F (Nov 20, 3:00 PM)84% (Nov 22, 10:00 PM)29.98 "Hg (Nov 22, 10:00 PM)
Low75 °F (Nov 18, 6:30 AM)19% (Nov 19, 3:30 PM)29.74 "Hg (Nov 15, 3:30 PM)
Average86 °F52%29.85 "Hg
* Reported Nov 14 1:40 PM — Nov 29 2:00 PM, Thane, Weather by CustomWeather, © 2015

Note: Actual official high and low records may vary slightly from our data, if they occured in-between our weather recording intervals... More about our weather records


Thane weather history for previous 24 hours

Time TempWeatherWind HumidityBarometerVisibility
2:00 PM
Sun, Nov 29
91 °FPassing clouds.8 mph38%29.86 "Hg2 mi
1:30 PM93 °FPassing clouds.8 mph39%29.89 "Hg2 mi
12:00 PM90 °FPassing clouds.7 mph41%29.95 "Hg2 mi
11:30 AM88 °FPassing clouds.6 mph43%29.95 "Hg2 mi
10:30 AM86 °FPassing clouds.7 mph40%29.98 "Hg2 mi
10:00 AM84 °FPassing clouds.5 mph43%29.98 "Hg2 mi
9:30 AM84 °FPassing clouds.6 mph40%29.98 "Hg2 mi
9:00 AM81 °FPassing clouds.6 mph42%29.98 "Hg1 mi
8:30 AM79 °FPassing clouds.6 mph45%29.95 "Hg1 mi
8:00 AM79 °FPassing clouds.No wind48%29.95 "Hg1 mi
7:30 AM79 °FPassing clouds.5 mph45%29.92 "Hg2 mi
7:00 AM77 °FPassing clouds.No wind47%29.92 "Hg2 mi
6:30 AM77 °FClear.7 mph47%29.89 "Hg2 mi
6:00 AM77 °FClear.No wind51%29.89 "Hg2 mi
5:30 AM77 °FClear.No wind47%29.89 "Hg2 mi
5:00 AM77 °FClear.5 mph51%29.89 "Hg2 mi
4:30 AM79 °FClear.5 mph39%29.89 "Hg2 mi
3:30 AM81 °FClear.3 mph42%29.89 "Hg2 mi
3:00 AM79 °FClear.3 mph42%29.89 "Hg2 mi
2:00 AM81 °FClear.3 mph42%29.89 "Hg2 mi
1:30 AM81 °FPassing clouds.No wind37%29.92 "Hg2 mi
1:00 AM81 °FPassing clouds.No wind37%29.92 "Hg2 mi
12:30 AM81 °FPassing clouds.No wind37%29.92 "Hg2 mi
12:00 AM81 °FPassing clouds.No wind37%29.92 "Hg2 mi
11:30 PM
Sat, Nov 28
81 °FPassing clouds.No wind42%29.92 "Hg2 mi
11:00 PM81 °FPassing clouds.No wind42%29.92 "Hg2 mi
10:30 PM81 °FPassing clouds.No wind39%29.92 "Hg2 mi
10:00 PM82 °FPassing clouds.No wind40%29.92 "Hg2 mi
9:30 PM82 °FPassing clouds.3 mph37%29.92 "Hg2 mi
9:00 PM82 °FPassing clouds.3 mph35%29.92 "Hg2 mi
8:30 PM82 °FPassing clouds.6 mph32%29.92 "Hg2 mi
8:00 PM82 °FPassing clouds.7 mph35%29.89 "Hg2 mi
7:30 PM84 °FPassing clouds.6 mph29%29.89 "Hg2 mi
7:00 PM84 °FPassing clouds.9 mph29%29.89 "Hg2 mi
6:30 PM84 °FPassing clouds.8 mph29%29.86 "Hg2 mi
6:00 PM84 °FScattered clouds.8 mph33%29.86 "Hg2 mi
5:30 PM86 °FScattered clouds.7 mph35%29.86 "Hg2 mi
5:00 PM88 °FScattered clouds.6 mph33%29.83 "Hg2 mi
4:30 PM88 °FScattered clouds.7 mph33%29.83 "Hg2 mi
4:00 PM88 °FScattered clouds.10 mph40%29.83 "Hg2 mi
3:30 PM90 °FScattered clouds.9 mph36%29.83 "Hg2 mi
3:00 PM90 °FScattered clouds.5 mph33%29.83 "Hg2 mi
Weather by CustomWeather, © 2015

See weather overviewHow to use our weather pages